Weather History for KHRT - October, 2013

Change the Weather History Date:

Sunday, October 27, 2013

  Actual Average Record
Temperature  
Mean Temperature 58 °F -  
Max Temperature 73 °F 74 °F 84 °F (1996)
Min Temperature 44 °F 55 °F -22 °F (2007)
Degree Days  
Heating Degree Days 6    
Growing Degree Days 8 (Base 50)    
Moisture  
Dew Point 45 °F    
Average Humidity 55    
Maximum Humidity 87    
Minimum Humidity 29    
Precipitation  
Precipitation 0.00 in - - ()
Sea Level Pressure  
Sea Level Pressure 30.14 in    
Wind  
Wind Speed 5 mph (ESE)    
Max Wind Speed 9 mph    
Max Gust Speed -    
Visibility 10 miles    
Events Rain    
Averages and records for this station are not official NWS values.
T = Trace of Precipitation, MM = Missing Value Source: NWS Daily Summary

Daily Weather History Graph

Daily Weather History Graph

Search for Another Location

Airport or City:

Trip Planner

Search our weather history database for the weather conditions in past years. The results will help you decide how hot, cold, wet, or windy it might be!

Date:

Astronomy

Oct. 27, 2013 Rise Set
Actual Time 6:57 AM CDT 6:03 PM CDT
Civil Twilight 6:32 AM CDT 6:27 PM CDT
Nautical Twilight 6:04 AM CDT 6:56 PM CDT
Astronomical Twilight 5:36 AM CDT 7:24 PM CDT
Moon 12:22 AM CDT (10/27) 1:46 PM CDT (10/27)
Length of Visible Light 11h 54m
Length of Day
11h 05m
Last Quarter, 43% of the Moon is Illuminated
Oct 27
Last Quarter
Nov 3
New
Nov 9
First Quarter
Nov 17
Full
Nov 25
Last Quarter

Hourly Weather History & Observations

Time (CDT) Temp. Windchill Dew Point Humidity Pressure Visibility Wind Dir Wind Speed Gust Speed Precip Events Conditions
12:58 AM 47.1 °F - 43.5 °F 87% 30.15 in 10.0 mi North 4.6 mph - N/A   Clear
1:58 AM 45.9 °F 41.2 °F 42.3 °F 87% 30.14 in 10.0 mi North 9.2 mph - N/A   Clear
2:58 AM 45.1 °F 40.8 °F 40.6 °F 84% 30.13 in 10.0 mi North 8.1 mph - N/A   Clear
3:58 AM 45.7 °F 42.7 °F 40.1 °F 81% 30.13 in 10.0 mi North 5.8 mph - N/A   Clear
4:58 AM 46.8 °F - 40.6 °F 79% 30.13 in 10.0 mi North 2.3 mph - N/A   Clear
5:58 AM 44.4 °F - 40.8 °F 87% 30.14 in 10.0 mi North - - N/A   Clear
6:23 AM 44.6 °F 40.7 °F 41.0 °F 87% 30.14 in 10.0 mi North 6.9 mph - N/A   Clear
6:58 AM 44.6 °F 42.2 °F 40.3 °F 85% 30.15 in 10.0 mi North 4.6 mph - N/A   Clear
7:58 AM 49.3 °F - 43.7 °F 81% 30.16 in 10.0 mi North 4.6 mph - N/A   Clear
8:58 AM 60.1 °F - 42.8 °F 53% 30.18 in 10.0 mi NE 3.5 mph - N/A   Clear
9:58 AM 67.3 °F - 39.7 °F 36% 30.19 in 10.0 mi ENE 5.8 mph - N/A   Clear
10:58 AM 70.5 °F - 38.1 °F 31% 30.19 in 10.0 mi SSE 3.5 mph - N/A   Clear
11:04 AM 71.6 °F - 37.4 °F 29% 30.18 in 10.0 mi ESE 5.8 mph - N/A   Light Drizzle
11:08 AM 71.6 °F - 37.4 °F 29% 30.18 in 10.0 mi Variable 3.5 mph - N/A   Clear
11:22 AM 71.6 °F - 37.4 °F 29% 30.17 in 10.0 mi East 5.8 mph - N/A Rain Light Rain
11:41 AM 71.6 °F - 39.2 °F 31% 30.17 in 10.0 mi SE 6.9 mph - N/A   Clear
11:49 AM 73.4 °F - 41.0 °F 31% 30.17 in 10.0 mi SE 6.9 mph - N/A   Light Drizzle
11:58 AM 73.2 °F - 40.5 °F 31% 30.18 in 10.0 mi SSE 5.8 mph - 0.00 in   Light Drizzle
11:59 AM 73.4 °F - 39.2 °F 29% 30.17 in 10.0 mi SE 8.1 mph - N/A   Clear
12:03 PM 73.4 °F - 39.2 °F 29% 30.16 in 10.0 mi SSE 5.8 mph - N/A   Light Drizzle
12:07 PM 73.4 °F - 39.2 °F 29% 30.16 in 10.0 mi SSE 8.1 mph - N/A   Clear
12:58 PM 73.8 °F - 40.8 °F 30% 30.15 in 10.0 mi SSE 8.1 mph - 0.00 in   Clear
1:17 PM 71.6 °F - 42.8 °F 35% 30.12 in 10.0 mi SSE 9.2 mph - N/A   Light Drizzle
1:29 PM 71.6 °F - 44.6 °F 38% 30.12 in 10.0 mi South 6.9 mph - N/A   Clear
1:58 PM 72.0 °F - 46.9 °F 41% 30.12 in 10.0 mi Variable 6.9 mph - 0.00 in   Clear
2:34 PM 71.6 °F - 50.0 °F 46% 30.11 in 10.0 mi SSE 5.8 mph - N/A Rain Light Rain
2:44 PM 71.6 °F - 48.2 °F 43% 30.11 in 10.0 mi SSE 5.8 mph - N/A   Clear
2:58 PM 72.3 °F - 49.1 °F 44% 30.12 in 10.0 mi Variable 2.3 mph - 0.00 in   Clear
3:41 PM 69.8 °F - 50.0 °F 49% 30.12 in 10.0 mi SSE 6.9 mph - N/A   Light Drizzle
3:45 PM 69.8 °F - 50.0 °F 49% 30.11 in 10.0 mi South 6.9 mph - N/A   Clear
3:58 PM 70.3 °F - 49.6 °F 48% 30.12 in 10.0 mi SSE 8.1 mph - 0.00 in   Clear
4:58 PM 69.1 °F - 51.1 °F 53% 30.12 in 10.0 mi South 5.8 mph - N/A   Clear
5:58 PM 68.2 °F - 51.8 °F 56% 30.11 in 10.0 mi SSE 2.3 mph - N/A   Partly Cloudy
6:58 PM 64.9 °F - 52.0 °F 63% 30.12 in 10.0 mi Calm Calm - N/A   Partly Cloudy
7:58 PM 59.7 °F - 54.3 °F 82% 30.13 in 10.0 mi North 3.5 mph - N/A   Scattered Clouds
8:58 PM 60.1 °F - 54.3 °F 81% 30.14 in 10.0 mi Calm Calm - N/A   Mostly Cloudy
9:52 PM 62.6 °F - 51.8 °F 68% 30.11 in 10.0 mi ENE 4.6 mph - N/A   Light Drizzle
9:58 PM 63.1 °F - 51.8 °F 66% 30.12 in 10.0 mi Variable 2.3 mph - 0.00 in Rain Light Rain
10:15 PM 62.6 °F - 53.6 °F 72% 30.13 in 10.0 mi NW 4.6 mph - N/A   Scattered Clouds
10:58 PM 59.5 °F - 53.4 °F 80% 30.15 in 10.0 mi Calm Calm - 0.00 in   Scattered Clouds
11:58 PM 56.5 °F - 52.3 °F 86% 30.14 in 10.0 mi North 2.3 mph - N/A   Clear